Location: Rancho Santa Fe Post Office
(33.0184°N, 117.2026°W)
Time: 05:57:19
(UTC+00:00)

COSMO-SKYMED 1 - Pass Details

Date: 10 September 2024
Orbit: 621 x 623 km, 97.9° (Epoch: 09 October)

Event Time Altitude Azimuth Distance (km) Brightness Sun altitude
Rises 12:53:06 0° 158° (SSE) 2,891 6.1 -8.4°
Reaches altitude 10° 12:55:18 10° 155° (SSE) 1,988 5.4 -7.9°
Maximum altitude 12:59:34 60° 76° (ENE) 717 3.3 -7.1°
Drops below altitude 10° 13:03:51 10° 356° (N) 2,000 5.3 -6.2°
Sets 13:06:04 0° 353° (N) 2,909 6.0 -5.7°
